Weather History for Fayetteville, AR

Change the Weather History Date:

Saturday, April 12, 2014

  Actual Average Record
Temperature  
Mean Temperature 68 °F 56 °F  
Max Temperature 77 °F 68 °F 90 °F (1972)
Min Temperature 58 °F 44 °F 24 °F (1957)
Degree Days  
Heating Degree Days 0 10  
Month to date heating degree days 112 135  
Since 1 July heating degree days 4492 3964  
Cooling Degree Days 3 1  
Month to date cooling degree days 9 9  
Year to date cooling degree days 9 13  
Growing Degree Days 18 (Base 50)    
Moisture  
Dew Point 57 °F    
Average Humidity 67    
Maximum Humidity 87    
Minimum Humidity 46    
Precipitation  
Precipitation 0.00 in 0.14 in 1.62 in (1952)
Month to date precipitation 1.64 1.70  
Year to date precipitation 9.70 11.30  
Sea Level Pressure  
Sea Level Pressure 29.84 in    
Wind  
Wind Speed 14 mph (South)    
Max Wind Speed 28 mph    
Max Gust Speed 37 mph    
Visibility 10 miles    
Events      
T = Trace of Precipitation, MM = Missing Value Source: NWS Daily Summary

Daily Weather History Graph

Daily Weather History Graph

Search for Another Location

Airport:

Trip Planner

Search our weather history database for the weather conditions in past years. The results will help you decide how hot, cold, wet, or windy it might be!

Date:

Astronomy

Apr. 12, 2014 Rise Set
Actual Time 6:47 AM CDT 7:47 PM CDT
Civil Twilight 6:21 AM CDT 8:14 PM CDT
Nautical Twilight 5:50 AM CDT 8:45 PM CDT
Astronomical Twilight 5:17 AM CDT 9:17 PM CDT
Moon 5:31 PM CDT (4/12) 5:09 AM CDT (4/12)
Length of Visible Light 13h 52m
Length of Day
13h 00m
Waxing Gibbous, 93% of the Moon is Illuminated
Apr 12
Waxing Gibbous
Apr 15
Full
Apr 22
Last Quarter
Apr 29
New
May 6
First Quarter

Hourly Weather History & Observations

Time (CDT) Temp. Dew Point Humidity Pressure Visibility Wind Dir Wind Speed Gust Speed Precip Events Conditions
12:53 AM 59.0 °F 55.9 °F 90% 29.95 in 10.0 mi Calm Calm - N/A   Mostly Cloudy
1:53 AM 59.0 °F 54.0 °F 83% 29.94 in 10.0 mi Calm Calm - N/A   Clear
2:53 AM 63.0 °F 55.0 °F 75% 29.92 in 10.0 mi SSE 4.6 mph - N/A   Clear
3:53 AM 62.1 °F 55.0 °F 78% 29.91 in 10.0 mi South 4.6 mph - N/A   Clear
4:53 AM 61.0 °F 55.9 °F 83% 29.90 in 10.0 mi South 6.9 mph - N/A   Mostly Cloudy
5:53 AM 63.0 °F 57.0 °F 81% 29.89 in 10.0 mi South 11.5 mph - N/A   Mostly Cloudy
6:53 AM 62.1 °F 57.0 °F 84% 29.90 in 10.0 mi South 9.2 mph - N/A   Mostly Cloudy
7:53 AM 63.0 °F 57.0 °F 81% 29.91 in 10.0 mi South 6.9 mph - N/A   Clear
8:53 AM 66.0 °F 57.9 °F 75% 29.90 in 10.0 mi South 17.3 mph 23.0 mph N/A   Clear
9:53 AM 66.0 °F 59.0 °F 78% 29.91 in 10.0 mi South 18.4 mph 26.5 mph N/A   Partly Cloudy
10:53 AM 68.0 °F 59.0 °F 73% 29.91 in 10.0 mi South 18.4 mph 23.0 mph N/A   Partly Cloudy
11:53 AM 71.1 °F 59.0 °F 66% 29.90 in 10.0 mi South 21.9 mph - N/A   Partly Cloudy
12:53 PM 72.0 °F 59.0 °F 64% 29.86 in 10.0 mi South 17.3 mph 27.6 mph N/A   Clear
1:53 PM 73.9 °F 57.9 °F 57% 29.82 in 10.0 mi South 20.7 mph 28.8 mph N/A   Clear
2:53 PM 75.0 °F 57.9 °F 55% 29.79 in 10.0 mi South 18.4 mph 32.2 mph N/A   Clear
3:53 PM 77.0 °F 57.0 °F 50% 29.76 in 10.0 mi South 20.7 mph 26.5 mph N/A   Clear
4:53 PM 75.9 °F 54.0 °F 46% 29.74 in 10.0 mi South 18.4 mph 34.5 mph N/A   Clear
5:53 PM 75.9 °F 54.0 °F 46% 29.72 in 10.0 mi SSE 19.6 mph 27.6 mph N/A   Clear
6:53 PM 73.9 °F 54.0 °F 50% 29.73 in 10.0 mi SSE 19.6 mph 28.8 mph N/A   Clear
7:53 PM 71.1 °F 54.0 °F 55% 29.74 in 10.0 mi South 17.3 mph 24.2 mph N/A   Clear
8:53 PM 70.0 °F 55.9 °F 61% 29.76 in 10.0 mi South 15.0 mph 25.3 mph N/A   Clear
9:53 PM 68.0 °F 57.0 °F 68% 29.77 in 10.0 mi South 17.3 mph 27.6 mph N/A   Clear
10:53 PM 68.0 °F 57.0 °F 68% 29.75 in 10.0 mi South 11.5 mph 19.6 mph N/A   Clear
11:53 PM 68.0 °F 57.9 °F 70% 29.73 in 10.0 mi South 13.8 mph 23.0 mph N/A   Clear